| time (UTC) | temp F | wind direction | speed MPH | gust MPH | rain 1hr in | rain 24hr in | rain mn in | humidity % | barometer mb |
| 20260901141019 | 57 | 244 | 9.0 | 17.0 | 0.00 | 1.72 | 0.00 | 98 | 1009.3 |
| 20260901140618 | 57 | 187 | 10.0 | 19.0 | 0.00 | 1.72 | 0.00 | 98 | 1009.0 |
| 20260901140013 | 57 | 359 | 10.0 | 19.0 | 0.00 | 1.72 | 0.00 | 98 | 1009.1 |
| 20260901135511 | 57 | 177 | 9.0 | 19.0 | 0.00 | 1.72 | 0.00 | 98 | 1009.0 |
| 20260901135010 | 57 | 359 | 9.0 | 21.0 | 0.00 | 1.72 | 0.00 | 98 | 1008.9 |
| 20260901134511 | 56 | 224 | 9.0 | 22.0 | 0.00 | 1.72 | 0.00 | 99 | 1008.9 |
| 20260901134008 | 56 | 359 | 9.0 | 18.0 | 0.00 | 1.72 | 0.00 | 99 | 1008.8 |
| 20260901133508 | 56 | 190 | 7.0 | 21.0 | 0.00 | 1.82 | 0.00 | 99 | 1008.8 |
| 20260901133007 | 56 | 222 | 12.0 | 21.0 | 0.00 | 1.82 | 0.00 | 98 | 1008.7 |
| 20260901132507 | 56 | 247 | 11.0 | 20.0 | 0.00 | 1.82 | 0.00 | 98 | 1008.7 |
| 20260901132007 | 56 | 251 | 10.0 | 20.0 | 0.00 | 1.82 | 0.00 | 98 | 1008.6 |
| 20260901131506 | 56 | 244 | 10.0 | 19.0 | 0.00 | 1.82 | 0.00 | 98 | 1008.5 |
| 20260901131005 | 56 | 359 | 10.0 | 21.0 | 0.00 | 1.82 | 0.00 | 98 | 1008.3 |
| 20260901130606 | 56 | 359 | 9.0 | 20.0 | 0.00 | 1.82 | 0.00 | 99 | 1008.5 |
| 20260901130006 | 56 | 359 | 7.0 | 20.0 | 0.00 | 1.82 | 0.00 | 98 | 1008.5 |
| 20260901125504 | 56 | 359 | 11.0 | 21.0 | 0.00 | 1.82 | 0.00 | 98 | 1008.5 |
| 20260901125003 | 56 | 359 | 12.0 | 21.0 | 0.00 | 1.82 | 0.00 | 98 | 1008.5 |
| 20260901124503 | 56 | 359 | 11.0 | 21.0 | 0.00 | 1.82 | 0.00 | 99 | 1008.3 |
| 20260901124001 | 56 | 359 | 11.0 | 20.0 | 0.00 | 2.13 | 0.00 | 99 | 1008.2 |
| 20260901123601 | 56 | 359 | 11.0 | 23.0 | 0.00 | 2.13 | 0.00 | 99 | 1008.1 |
| 20260901123100 | 56 | 251 | 12.0 | 26.0 | 0.00 | 2.13 | 0.00 | 99 | 1008.1 |
| 20260901122558 | 56 | 254 | 13.0 | 26.0 | 0.00 | 2.13 | 0.00 | 99 | 1008.1 |
| 20260901122057 | 56 | 256 | 12.0 | 25.0 | 0.00 | 2.13 | 0.00 | 99 | 1007.9 |
| 20260901121600 | 56 | 252 | 12.0 | 25.0 | 0.00 | 2.13 | 0.00 | 99 | 1007.8 |
| 20260901121057 | 56 | 359 | 14.0 | 24.0 | 0.00 | 2.13 | 0.00 | 99 | 1007.9 |
| 20260901120556 | 56 | 359 | 13.0 | 23.0 | 0.00 | 2.13 | 0.00 | 98 | 1007.5 |
| 20260901115556 | 56 | 359 | 12.0 | 27.0 | 0.00 | 2.13 | 0.00 | 98 | 1007.5 |
| 20260901115055 | 56 | 257 | 16.0 | 27.0 | 0.00 | 2.13 | 0.00 | 98 | 1007.6 |
| 20260901114554 | 56 | 359 | 14.0 | 25.0 | 0.00 | 2.13 | 0.00 | 98 | 1007.3 |
| 20260901114052 | 56 | 359 | 13.0 | 24.0 | 0.00 | 2.13 | 0.00 | 99 | 1007.3 |
| 20260901113552 | 56 | 359 | 12.0 | 24.0 | 0.00 | 2.13 | 0.00 | 98 | 1007.3 |
| 20260901113111 | 56 | 359 | 13.0 | 26.0 | 0.00 | 2.13 | 0.00 | 98 | 1007.1 |
| 20260901112552 | 56 | 359 | 17.0 | 27.0 | 0.00 | 2.13 | 0.00 | 98 | 1007.1 |
| 20260901112050 | 56 | 359 | 16.0 | 27.0 | 0.00 | 2.13 | 0.00 | 98 | 1006.9 |
| 20260901111550 | 56 | 247 | 15.0 | 26.0 | 0.00 | 2.13 | 0.00 | 99 | 1006.8 |
| 20260901111050 | 56 | 359 | 17.0 | 27.0 | 0.00 | 2.13 | 0.00 | 99 | 1006.7 |
| 20260901110551 | 55 | 249 | 17.0 | 27.0 | 0.00 | 2.13 | 0.00 | 98 | 1006.6 |
| 20260901105547 | 55 | 359 | 19.0 | 28.0 | 0.00 | 2.13 | 0.00 | 98 | 1006.6 |
| 20260901105046 | 55 | 359 | 20.0 | 32.0 | 0.00 | 2.13 | 0.00 | 98 | 1006.7 |
| 20260901104545 | 55 | 359 | 20.0 | 34.0 | 0.00 | 2.13 | 0.00 | 98 | 1006.4 |
| 20260901104042 | 55 | 359 | 20.0 | 34.0 | 0.00 | 2.13 | 0.00 | 98 | 1006.5 |
| 20260901103543 | 55 | 359 | 21.0 | 38.0 | 0.00 | 2.14 | 2.13 | 98 | 1006.1 |
| 20260901103042 | 55 | 359 | 23.0 | 38.0 | 0.00 | 2.14 | 2.13 | 98 | 1005.9 |
| 20260901102542 | 55 | 359 | 23.0 | 37.0 | 0.00 | 2.14 | 2.13 | 98 | 1006.0 |
| 20260901102042 | 55 | 359 | 22.0 | 34.0 | 0.00 | 2.14 | 2.13 | 98 | 1005.6 |
| 20260901101603 | 55 | 359 | 24.0 | 36.0 | 0.00 | 2.14 | 2.13 | 98 | 1005.6 |
| 20260901101042 | 55 | 359 | 27.0 | 36.0 | 0.00 | 2.14 | 2.13 | 98 | 1005.6 |
| 20260901100542 | 55 | 359 | 26.0 | 35.0 | 0.00 | 2.14 | 2.13 | 98 | 1005.3 |
| 20260901100105 | 55 | 359 | 25.0 | 35.0 | 0.00 | 2.14 | 2.13 | 98 | 1005.4 |
| 20260901095548 | 55 | 359 | 26.0 | 35.0 | 0.00 | 2.14 | 2.13 | 98 | 1005.2 |
| 20260901095048 | 55 | 359 | 26.0 | 35.0 | 0.00 | 2.14 | 2.13 | 98 | 1005.0 |
| 20260901094548 | 55 | 359 | 26.0 | 32.0 | 0.00 | 2.14 | 2.13 | 98 | 1004.8 |
| 20260901094048 | 55 | 359 | 23.0 | 34.0 | 0.00 | 2.14 | 2.13 | 98 | 1005.0 |
| 20260901093550 | 55 | 359 | 25.0 | 34.0 | 0.00 | 2.14 | 2.13 | 98 | 1005.0 |
| 20260901093047 | 55 | 359 | 23.0 | 41.0 | 0.00 | 2.14 | 2.13 | 98 | 1004.9 |
| 20260901092547 | 55 | 359 | 27.0 | 38.0 | 0.00 | 2.14 | 2.13 | 98 | 1004.8 |
| 20260901092048 | 55 | 359 | 27.0 | 40.0 | 0.00 | 2.14 | 2.13 | 98 | 1004.6 |
| 20260901091548 | 55 | 359 | 26.0 | 40.0 | 0.00 | 2.14 | 2.13 | 98 | 1004.5 |
| 20260901091047 | 55 | 260 | 26.0 | 36.0 | 0.00 | 2.14 | 2.13 | 98 | 1004.6 |
| 20260901090547 | 55 | 359 | 26.0 | 39.0 | 0.00 | 2.14 | 2.13 | 98 | 1004.5 |
| 20260901090045 | 55 | 359 | 25.0 | 39.0 | 0.00 | 2.14 | 2.13 | 98 | 1004.6 |
| 20260901085545 | 55 | 359 | 26.0 | 36.0 | 0.00 | 2.14 | 2.13 | 98 | 1004.5 |
| 20260901085041 | 55 | 359 | 25.0 | 38.0 | 0.00 | 2.14 | 2.13 | 98 | 1004.5 |
| 20260901084546 | 55 | 359 | 27.0 | 38.0 | 0.01 | 2.14 | 2.13 | 98 | 1004.3 |
| 20260901084042 | 55 | 359 | 27.0 | 38.0 | 0.01 | 2.14 | 2.13 | 98 | 1004.6 |
| 20260901083542 | 55 | 359 | 27.0 | 39.0 | 0.01 | 2.14 | 2.13 | 98 | 1004.5 |
| 20260901083041 | 55 | 359 | 29.0 | 39.0 | 0.01 | 2.14 | 2.13 | 98 | 1004.4 |
| 20260901082540 | 55 | 359 | 26.0 | 37.0 | 0.01 | 2.14 | 2.13 | 97 | 1004.5 |
| 20260901082044 | 55 | 359 | 25.0 | 39.0 | 0.01 | 2.14 | 2.13 | 97 | 1004.6 |
| 20260901081545 | 56 | 359 | 27.0 | 39.0 | 0.01 | 2.14 | 2.13 | 97 | 1004.3 |
| 20260901081040 | 56 | 359 | 24.0 | 38.0 | 0.01 | 2.14 | 2.13 | 96 | 1004.4 |
| 20260901080540 | 56 | 359 | 28.0 | 38.0 | 0.01 | 2.14 | 2.13 | 96 | 1004.2 |
| 20260901080043 | 57 | 359 | 29.0 | 38.0 | 0.01 | 2.14 | 2.13 | 96 | 1004.2 |
| 20260901075537 | 57 | 359 | 28.0 | 38.0 | 0.01 | 2.14 | 2.13 | 96 | 1004.0 |
| 20260901075038 | 56 | 359 | 27.0 | 41.0 | 0.01 | 2.14 | 2.13 | 96 | 1004.0 |
| 20260901074537 | 56 | 359 | 26.0 | 41.0 | 0.00 | 2.13 | 2.13 | 96 | 1004.0 |
| 20260901074037 | 56 | 359 | 26.0 | 37.0 | 0.00 | 2.13 | 2.13 | 96 | 1004.1 |
| 20260901073536 | 56 | 359 | 25.0 | 35.0 | 0.00 | 2.14 | 2.13 | 96 | 1004.1 |
| 20260901073040 | 56 | 359 | 27.0 | 35.0 | 0.00 | 2.14 | 2.13 | 96 | 1004.2 |
| 20260901072537 | 56 | 259 | 26.0 | 35.0 | 0.00 | 2.14 | 2.13 | 95 | 1004.5 |
| 20260901072034 | 56 | 359 | 23.0 | 30.0 | 0.00 | 2.14 | 2.13 | 95 | 1004.3 |
| 20260901071534 | 56 | 359 | 21.0 | 32.0 | 0.00 | 2.14 | 2.13 | 95 | 1004.4 |
| 20260901071033 | 56 | 359 | 23.0 | 32.0 | 0.00 | 2.14 | 2.13 | 95 | 1004.5 |
| 20260901070532 | 56 | 359 | 20.0 | 27.0 | 0.00 | 2.14 | 2.13 | 95 | 1005.0 |
| 20260901070037 | 55 | 359 | 21.0 | 27.0 | 0.00 | 2.14 | 2.13 | 95 | 1004.9 |
| 20260901065531 | 55 | 359 | 18.0 | 27.0 | 0.00 | 2.14 | 2.13 | 95 | 1005.1 |
| 20260901065031 | 56 | 359 | 17.0 | 25.0 | 0.00 | 2.14 | 2.13 | 94 | 1005.2 |
| 20260901064531 | 56 | 359 | 16.0 | 23.0 | 0.00 | 2.14 | 2.13 | 93 | 1004.9 |
| 20260901064029 | 56 | 359 | 16.0 | 25.0 | 0.00 | 2.14 | 2.13 | 92 | 1005.2 |
| 20260901063529 | 56 | 359 | 18.0 | 25.0 | 0.00 | 2.14 | 2.13 | 92 | 1005.7 |
| 20260901063030 | 56 | 359 | 14.0 | 20.0 | 0.00 | 2.14 | 2.13 | 91 | 1005.1 |
| 20260901062528 | 56 | 359 | 12.0 | 20.0 | 0.00 | 2.14 | 2.13 | 90 | 1005.7 |
| 20260901062031 | 56 | 359 | 15.0 | 20.0 | 0.00 | 2.14 | 2.13 | 91 | 1006.1 |
| 20260901061527 | 56 | 359 | 13.0 | 19.0 | 0.00 | 2.14 | 2.13 | 91 | 1006.1 |
| 20260901061027 | 56 | 359 | 14.0 | 19.0 | 0.00 | 2.14 | 2.13 | 91 | 1005.9 |
| 20260901060526 | 56 | 359 | 13.0 | 16.0 | 0.00 | 2.14 | 2.13 | 90 | 1006.3 |
| 20260901060026 | 56 | 359 | 13.0 | 16.0 | 0.00 | 2.14 | 2.13 | 91 | 1006.2 |
| 20260901055525 | 55 | 359 | 12.0 | 14.0 | 0.00 | 2.14 | 2.13 | 93 | 1006.4 |
| 20260901055030 | 55 | 359 | 11.0 | 16.0 | 0.00 | 2.14 | 2.13 | 93 | 1006.6 |
| 20260901054525 | 55 | 359 | 12.0 | 16.0 | 0.00 | 2.14 | 2.13 | 94 | 1006.7 |
| 20260901054028 | 55 | 359 | 10.0 | 15.0 | 0.00 | 2.14 | 2.13 | 96 | 1006.8 |
| 20260901053525 | 55 | 359 | 11.0 | 15.0 | 0.00 | 2.27 | 2.13 | 96 | 1006.8 |
| 20260901053029 | 55 | 359 | 10.0 | 13.0 | 0.00 | 2.27 | 2.13 | 95 | 1006.9 |
| 20260901052524 | 55 | 359 | 10.0 | 13.0 | 0.00 | 2.27 | 2.13 | 96 | 1006.9 |
| 20260901052024 | 55 | 359 | 10.0 | 14.0 | 0.00 | 2.27 | 2.13 | 96 | 1006.9 |
| 20260901051524 | 55 | 359 | 10.0 | 14.0 | 0.00 | 2.27 | 2.13 | 95 | 1007.0 |
| 20260901051024 | 55 | 359 | 8.0 | 13.0 | 0.00 | 2.27 | 2.13 | 95 | 1007.1 |
| 20260901050524 | 55 | 359 | 8.0 | 13.0 | 0.00 | 2.27 | 2.13 | 93 | 1007.2 |
| 20260901045529 | 56 | 359 | 8.0 | 10.0 | 0.00 | 2.27 | 2.13 | 93 | 1007.2 |
| 20260901045029 | 56 | 359 | 8.0 | 10.0 | 0.00 | 2.27 | 2.13 | 93 | 1007.1 |
| 20260901044534 | 55 | 359 | 6.0 | 10.0 | 0.00 | 2.27 | 2.13 | 94 | 1007.0 |
| 20260901044028 | 55 | 354 | 8.0 | 10.0 | 0.00 | 2.27 | 2.13 | 95 | 1007.4 |
| 20260901043528 | 55 | 354 | 7.0 | 12.0 | 0.00 | 2.80 | 2.13 | 96 | 1007.7 |
| 20260901043036 | 55 | 359 | 9.0 | 12.0 | 0.00 | 2.80 | 2.13 | 96 | 1007.6 |
| 20260901042532 | 55 | 12 | 9.0 | 12.0 | 0.00 | 2.80 | 2.13 | 96 | 1007.7 |
| 20260901042034 | 55 | 346 | 9.0 | 14.0 | 0.00 | 2.80 | 2.13 | 97 | 1007.9 |
| 20260901041528 | 55 | 359 | 9.0 | 16.0 | 0.00 | 2.80 | 2.13 | 98 | 1007.9 |
| 20260901041027 | 55 | 359 | 12.0 | 16.0 | 0.00 | 2.80 | 2.13 | 98 | 1008.4 |
| 20260901040526 | 55 | 359 | 11.0 | 16.0 | 0.00 | 2.80 | 2.13 | 98 | 1008.4 |
| 20260901040020 | 55 | 359 | 12.0 | 16.0 | 0.00 | 2.80 | 2.13 | 98 | 1008.4 |
| 20260901035524 | 55 | 4 | 10.0 | 15.0 | 0.00 | 2.80 | 2.13 | 98 | 1008.4 |
| 20260901035021 | 55 | 359 | 10.0 | 15.0 | 0.00 | 2.80 | 2.13 | 98 | 1008.4 |
| 20260901034520 | 55 | 359 | 12.0 | 15.0 | 0.00 | 2.80 | 2.13 | 98 | 1009.0 |
| 20260901034022 | 55 | 4 | 8.0 | 15.0 | 0.00 | 2.80 | 2.13 | 98 | 1008.6 |
| 20260901033519 | 55 | 354 | 10.0 | 15.0 | 0.00 | 2.99 | 2.13 | 98 | 1009.2 |
| 20260901033023 | 55 | 10 | 3.0 | 11.0 | 0.00 | 2.99 | 2.13 | 98 | 1008.6 |
| 20260901032519 | 55 | 45 | 8.0 | 11.0 | 0.01 | 2.99 | 2.13 | 98 | 1008.2 |
| 20260901032018 | 54 | 359 | 0.0 | 5.0 | 0.01 | 2.99 | 2.13 | 98 | 1009.2 |
| 20260901031518 | 54 | 359 | 0.0 | 3.0 | 0.01 | 2.99 | 2.13 | 98 | 1009.2 |
| 20260901031016 | 54 | 177 | 0.0 | 4.0 | 0.02 | 2.99 | 2.13 | 98 | 1009.1 |
| 20260901030516 | 55 | 173 | 1.0 | 3.0 | 0.02 | 2.99 | 2.13 | 98 | 1009.3 |
| 20260901030018 | 55 | 175 | 1.0 | 3.0 | 0.02 | 2.99 | 2.13 | 98 | 1009.3 |
| 20260901025515 | 55 | 359 | 1.0 | 4.0 | 0.02 | 2.99 | 2.13 | 98 | 1009.4 |
| 20260901025017 | 55 | 359 | 2.0 | 4.0 | 0.02 | 2.99 | 2.13 | 98 | 1009.3 |
| 20260901024517 | 55 | 79 | 1.0 | 4.0 | 0.02 | 2.99 | 2.13 | 98 | 1010.3 |
| 20260901024017 | 55 | 76 | 0.0 | 5.0 | 0.02 | 2.99 | 2.13 | 98 | 1010.1 |
| 20260901023514 | 55 | 73 | 1.0 | 13.0 | 0.02 | 2.99 | 2.13 | 98 | 1010.3 |
| 20260901023014 | 56 | 359 | 5.0 | 26.0 | 0.02 | 2.99 | 2.13 | 98 | 1010.5 |
| 20260901022514 | 56 | 359 | 6.0 | 26.0 | 0.02 | 2.98 | 2.12 | 98 | 1010.9 |
| 20260901022017 | 56 | 179 | 8.0 | 22.0 | 0.05 | 2.98 | 2.12 | 98 | 1011.1 |
| 20260901021513 | 56 | 142 | 11.0 | 22.0 | 0.07 | 2.98 | 2.12 | 98 | 1011.5 |
| 20260901021013 | 55 | 246 | 9.0 | 23.0 | 0.07 | 2.98 | 2.11 | 99 | 1012.2 |
| 20260901020518 | 55 | 359 | 10.0 | 20.0 | 0.10 | 2.98 | 2.11 | 99 | 1011.4 |
| 20260901020040 | 55 | 238 | 10.0 | 20.0 | 0.11 | 2.98 | 2.11 | 99 | 1011.4 |
| 20260901015517 | 55 | 359 | 4.0 | 10.0 | 0.13 | 2.98 | 2.11 | 99 | 1011.1 |
| 20260901015016 | 55 | 173 | 1.0 | 8.0 | 0.14 | 2.98 | 2.11 | 98 | 1010.6 |
| 20260901014517 | 55 | 54 | 2.0 | 7.0 | 0.15 | 2.98 | 2.11 | 98 | 1010.1 |
| 20260901014020 | 55 | 359 | 2.0 | 15.0 | 0.16 | 2.98 | 2.11 | 98 | 1010.2 |
| 20260901013517 | 56 | 359 | 3.0 | 15.0 | 0.17 | 2.98 | 2.11 | 98 | 1010.2 |
| 20260901013016 | 56 | 168 | 2.0 | 17.0 | 0.18 | 2.98 | 2.11 | 98 | 1010.3 |
| 20260901012515 | 56 | 201 | 5.0 | 17.0 | 0.20 | 2.97 | 2.10 | 99 | 1010.3 |
| 20260901012019 | 57 | 359 | 3.0 | 12.0 | 0.27 | 2.95 | 2.09 | 99 | 1009.4 |
| 20260901011522 | 58 | 187 | 0.0 | 5.0 | 0.34 | 2.93 | 2.06 | 99 | 1010.4 |
| 20260901011016 | 58 | 359 | 2.0 | 5.0 | 0.42 | 2.91 | 2.04 | 99 | 1011.1 |
| 20260901010519 | 57 | 149 | 0.0 | 2.0 | 0.50 | 2.90 | 2.02 | 99 | 1011.2 |
| 20260901010013 | 58 | 359 | 0.0 | 2.0 | 0.50 | 2.88 | 2.02 | 99 | 1011.2 |
| 20260901005517 | 57 | 149 | 0.0 | 2.0 | 0.50 | 2.87 | 2.00 | 99 | 1011.1 |
| 20260901005013 | 57 | 149 | 0.0 | 2.0 | 0.49 | 2.85 | 1.98 | 99 | 1011.0 |
| 20260901004513 | 57 | 149 | 0.0 | 2.0 | 0.47 | 2.83 | 1.97 | 99 | 1010.4 |
| 20260901004012 | 57 | 149 | 0.0 | 2.0 | 0.46 | 2.82 | 1.95 | 99 | 1010.2 |
| 20260901003516 | 57 | 359 | 0.0 | 3.0 | 0.46 | 2.82 | 1.95 | 98 | 1010.2 |
| 20260901003012 | 57 | 165 | 0.0 | 4.0 | 0.44 | 2.80 | 1.94 | 98 | 1010.2 |
| 20260901002512 | 57 | 359 | 0.0 | 4.0 | 0.43 | 2.79 | 1.92 | 98 | 1010.5 |
| 20260901002012 | 57 | 131 | 1.0 | 4.0 | 0.38 | 2.74 | 1.87 | 99 | 1010.6 |
| 20260901001514 | 57 | 359 | 0.0 | 3.0 | 0.31 | 2.66 | 1.80 | 99 | 1010.8 |
| 20260901001012 | 57 | 359 | 0.0 | 4.0 | 0.20 | 2.54 | 1.69 | 99 | 1011.3 |
| 20260901000512 | 57 | 359 | 0.0 | 4.0 | 0.06 | 2.39 | 1.53 | 99 | 1010.4 |
| 20260901000009 | 57 | 262 | 0.0 | 5.0 | 0.07 | 2.39 | 1.53 | 99 | 1010.4 |
| 20260831235509 | 57 | 260 | 1.0 | 5.0 | 0.06 | 2.38 | 1.51 | 99 | 1009.6 |
| 20260831235009 | 57 | 214 | 1.0 | 6.0 | 0.06 | 2.36 | 1.50 | 99 | 1008.9 |
| 20260831234509 | 57 | 188 | 0.0 | 6.0 | 0.06 | 2.36 | 1.50 | 99 | 1008.9 |
| 20260831234009 | 57 | 137 | 1.0 | 6.0 | 0.09 | 2.36 | 1.50 | 99 | 1009.0 |
| 20260831233508 | 57 | 174 | 1.0 | 4.0 | 0.11 | 2.37 | 1.50 | 99 | 1008.6 |
| 20260831233017 | 57 | 359 | 1.0 | 5.0 | 0.13 | 2.37 | 1.50 | 99 | 1008.5 |
| 20260831232510 | 57 | 187 | 2.0 | 8.0 | 0.16 | 2.37 | 1.50 | 99 | 1008.4 |
| 20260831232009 | 57 | 186 | 2.0 | 8.0 | 0.17 | 2.37 | 1.50 | 99 | 1008.5 |
| 20260831231509 | 57 | 170 | 3.0 | 8.0 | 0.20 | 2.37 | 1.50 | 99 | 1008.5 |
| 20260831231009 | 57 | 179 | 2.0 | 10.0 | 0.20 | 2.36 | 1.49 | 99 | 1008.6 |
| 20260831230509 | 57 | 166 | 2.0 | 13.0 | 0.21 | 2.35 | 1.47 | 99 | 1008.8 |
| 20260831230010 | 57 | 108 | 2.0 | 13.0 | 0.20 | 2.34 | 1.46 | 99 | 1008.8 |
| 20260831225511 | 57 | 144 | 1.0 | 8.0 | 0.20 | 2.31 | 1.45 | 99 | 1009.7 |
| 20260831225010 | 57 | 85 | 1.0 | 10.0 | 0.21 | 2.31 | 1.45 | 99 | 1009.5 |
| 20260831224510 | 57 | 155 | 3.0 | 10.0 | 0.21 | 2.31 | 1.44 | 99 | 1008.8 |
| 20260831224010 | 57 | 132 | 3.0 | 8.0 | 0.21 | 2.29 | 1.43 | 99 | 1008.4 |
| 20260831223510 | 57 | 73 | 4.0 | 7.0 | 0.20 | 2.27 | 1.39 | 99 | 1009.3 |
| 20260831223010 | 57 | 46 | 3.0 | 8.0 | 0.21 | 2.25 | 1.38 | 99 | 1009.2 |
| 20260831222511 | 57 | 104 | 2.0 | 10.0 | 0.22 | 2.23 | 1.35 | 99 | 1009.0 |
| 20260831222009 | 57 | 164 | 3.0 | 9.0 | 0.21 | 2.20 | 1.33 | 99 | 1008.9 |
| 20260831221509 | 57 | 191 | 4.0 | 13.0 | 0.20 | 2.18 | 1.31 | 99 | 1008.7 |
| 20260831221009 | 57 | 189 | 4.0 | 13.0 | 0.24 | 2.17 | 1.29 | 99 | 1008.8 |
| 20260831220509 | 57 | 232 | 3.0 | 10.0 | 0.22 | 2.14 | 1.27 | 99 | 1008.7 |
| 20260831220007 | 57 | 359 | 3.0 | 10.0 | 0.21 | 2.13 | 1.26 | 99 | 1008.7 |
| 20260831215508 | 57 | 149 | 5.0 | 11.0 | 0.20 | 2.13 | 1.25 | 99 | 1008.4 |
| 20260831215007 | 57 | 359 | 1.0 | 11.0 | 0.20 | 2.12 | 1.24 | 99 | 1008.3 |
| 20260831214514 | 57 | 158 | 4.0 | 7.0 | 0.18 | 2.10 | 1.23 | 99 | 1007.9 |
| 20260831214010 | 57 | 179 | 2.0 | 8.0 | 0.18 | 2.10 | 1.23 | 99 | 1007.9 |
| 20260831213509 | 57 | 191 | 4.0 | 8.0 | 0.16 | 2.08 | 1.20 | 99 | 1008.2 |
| 20260831213007 | 57 | 359 | 0.0 | 4.0 | 0.14 | 2.06 | 1.18 | 99 | 1008.4 |
| 20260831212508 | 57 | 359 | 1.0 | 5.0 | 0.11 | 2.02 | 1.14 | 99 | 1008.3 |
| 20260831212006 | 57 | 359 | 2.0 | 5.0 | 0.13 | 2.00 | 1.12 | 98 | 1008.3 |
| 20260831211506 | 57 | 359 | 1.0 | 10.0 | 0.11 | 1.99 | 1.12 | 99 | 1008.5 |
| 20260831211005 | 57 | 72 | 2.0 | 10.0 | 0.06 | 1.94 | 1.07 | 98 | 1008.7 |
| 20260831210505 | 57 | 163 | 2.0 | 8.0 | 0.05 | 1.93 | 1.06 | 98 | 1008.2 |
| 20260831210007 | 57 | 177 | 3.0 | 8.0 | 0.06 | 1.93 | 1.06 | 98 | 1008.2 |
| 20260831205507 | 57 | 36 | 2.0 | 9.0 | 0.05 | 1.92 | 1.05 | 98 | 1008.4 |
| 20260831205007 | 57 | 359 | 1.0 | 9.0 | 0.05 | 1.92 | 1.05 | 98 | 1007.9 |
| 20260831204511 | 57 | 184 | 2.0 | 6.0 | 0.05 | 1.92 | 1.05 | 98 | 1007.5 |
| 20260831204007 | 57 | 184 | 2.0 | 7.0 | 0.05 | 1.92 | 1.05 | 98 | 1007.5 |
| 20260831203506 | 57 | 189 | 3.0 | 7.0 | 0.05 | 1.92 | 1.05 | 98 | 1007.5 |
| 20260831203006 | 57 | 172 | 2.0 | 14.0 | 0.04 | 1.91 | 1.04 | 98 | 1006.9 |
| 20260831202507 | 57 | 141 | 7.0 | 14.0 | 0.04 | 1.91 | 1.04 | 98 | 1006.9 |
| 20260831202006 | 57 | 359 | 3.0 | 11.0 | 0.02 | 1.90 | 1.02 | 98 | 1007.4 |
| 20260831201507 | 57 | 204 | 3.0 | 13.0 | 0.01 | 1.88 | 1.01 | 98 | 1007.1 |
| 20260831201008 | 57 | 223 | 2.0 | 13.0 | 0.02 | 1.88 | 1.01 | 98 | 1006.8 |
| 20260831200506 | 57 | 179 | 5.0 | 11.0 | 0.02 | 1.88 | 1.01 | 98 | 1006.3 |
| 20260831200015 | 57 | 152 | 5.0 | 11.0 | 0.03 | 1.88 | 1.01 | 98 | 1006.3 |
| 20260831195504 | 57 | 125 | 5.0 | 13.0 | 0.04 | 1.87 | 1.00 | 98 | 1006.7 |
| 20260831195005 | 57 | 359 | 4.0 | 13.0 | 0.05 | 1.87 | 1.00 | 98 | 1006.6 |
| 20260831194505 | 58 | 359 | 3.0 | 17.0 | 0.06 | 1.87 | 1.00 | 98 | 1006.5 |
| 20260831194005 | 58 | 175 | 5.0 | 17.0 | 0.06 | 1.95 | 1.00 | 98 | 1006.4 |
| 20260831193507 | 58 | 359 | 3.0 | 12.0 | 0.06 | 1.95 | 1.00 | 98 | 1006.8 |
| 20260831193004 | 58 | 186 | 4.0 | 12.0 | 0.06 | 1.95 | 1.00 | 98 | 1006.7 |
| 20260831192504 | 58 | 359 | 2.0 | 11.0 | 0.07 | 1.95 | 1.00 | 98 | 1007.1 |
| 20260831192008 | 58 | 359 | 3.0 | 11.0 | 0.07 | 1.95 | 1.00 | 98 | 1006.4 |
| 20260831191504 | 58 | 359 | 2.0 | 12.0 | 0.08 | 1.95 | 1.00 | 98 | 1006.2 |
| 20260831191004 | 58 | 359 | 3.0 | 11.0 | 0.07 | 1.94 | 0.99 | 98 | 1006.1 |
| 20260831190503 | 58 | 359 | 4.0 | 10.0 | 0.07 | 1.94 | 0.98 | 98 | 1007.5 |
| 20260831190005 | 58 | 359 | 2.0 | 7.0 | 0.07 | 1.94 | 0.98 | 98 | 1007.6 |
| 20260831185600 | 58 | 345 | 3.0 | 8.0 | 0.06 | 1.93 | 0.98 | 98 | 1007.9 |
| 20260831185059 | 58 | 105 | 3.0 | 8.0 | 0.06 | 1.91 | 0.96 | 98 | 1008.3 |
| 20260831184628 | 58 | 359 | 2.0 | 8.0 | 0.05 | 1.91 | 0.95 | 98 | 1008.4 |
| 20260831184101 | 58 | 254 | 2.0 | 8.0 | 0.04 | 1.90 | 0.94 | 98 | 1008.6 |
| 20260831183601 | 58 | 160 | 1.0 | 5.0 | 0.05 | 2.04 | 0.94 | 98 | 1008.8 |
| 20260831183106 | 58 | 133 | 0.0 | 2.0 | 0.04 | 2.02 | 0.94 | 98 | 1009.3 |
| 20260831182558 | 58 | 359 | 0.0 | 3.0 | 0.04 | 2.02 | 0.93 | 98 | 1010.4 |
| 20260831182058 | 58 | 359 | 0.0 | 6.0 | 0.05 | 2.02 | 0.93 | 98 | 1010.5 |
| 20260831181558 | 58 | 177 | 2.0 | 8.0 | 0.06 | 2.02 | 0.93 | 98 | 1010.7 |
| 20260831181057 | 58 | 359 | 2.0 | 8.0 | 0.08 | 2.02 | 0.92 | 98 | 1010.6 |
| 20260831180557 | 58 | 256 | 1.0 | 5.0 | 0.09 | 2.00 | 0.91 | 98 | 1010.5 |
| 20260831175558 | 58 | 145 | 4.0 | 9.0 | 0.13 | 2.00 | 0.91 | 98 | 1009.1 |
| 20260831175058 | 58 | 359 | 2.0 | 9.0 | 0.14 | 2.00 | 0.91 | 98 | 1009.2 |
| 20260831174608 | 58 | 359 | 2.0 | 9.0 | 0.15 | 2.00 | 0.91 | 98 | 1008.7 |
| 20260831174057 | 58 | 206 | 4.0 | 8.0 | 0.17 | 2.00 | 0.91 | 98 | 1008.8 |
| 20260831173556 | 58 | 221 | 0.0 | 4.0 | 0.19 | 2.13 | 0.91 | 98 | 1009.6 |
| 20260831173103 | 58 | 359 | 0.0 | 2.0 | 0.20 | 2.12 | 0.90 | 98 | 1010.4 |
| 20260831172554 | 58 | 359 | 0.0 | 2.0 | 0.24 | 2.12 | 0.90 | 98 | 1010.4 |
| 20260831172055 | 58 | 359 | 0.0 | 2.0 | 0.25 | 2.11 | 0.89 | 98 | 1010.7 |
| 20260831171553 | 58 | 359 | 0.0 | 2.0 | 0.26 | 2.09 | 0.87 | 98 | 1010.9 |
| 20260831171054 | 58 | 212 | 1.0 | 4.0 | 0.28 | 2.08 | 0.86 | 98 | 1011.5 |
| 20260831170555 | 58 | 208 | 0.0 | 4.0 | 0.30 | 2.06 | 0.83 | 98 | 1011.9 |
| 20260831165559 | 58 | 359 | 2.0 | 7.0 | 0.28 | 2.02 | 0.80 | 98 | 1012.1 |
| 20260831165056 | 58 | 187 | 2.0 | 7.0 | 0.30 | 2.00 | 0.78 | 98 | 1012.0 |
| 20260831164556 | 58 | 160 | 1.0 | 7.0 | 0.30 | 1.98 | 0.76 | 98 | 1011.5 |
| 20260831164059 | 58 | 359 | 0.0 | 2.0 | 0.28 | 1.98 | 0.76 | 98 | 1011.3 |
| 20260831163556 | 58 | 192 | 0.0 | 5.0 | 0.27 | 2.15 | 0.73 | 98 | 1011.8 |
| 20260831163057 | 58 | 192 | 1.0 | 6.0 | 0.24 | 2.12 | 0.70 | 98 | 1012.3 |
| 20260831162556 | 58 | 359 | 2.0 | 5.0 | 0.22 | 2.09 | 0.68 | 98 | 1012.3 |
| 20260831162056 | 58 | 359 | 0.0 | 3.0 | 0.20 | 2.06 | 0.65 | 98 | 1012.0 |
| 20260831161555 | 58 | 359 | 0.0 | 3.0 | 0.18 | 2.04 | 0.63 | 98 | 1011.8 |
| 20260831161057 | 58 | 359 | 0.0 | 3.0 | 0.17 | 2.02 | 0.61 | 98 | 1011.7 |
| 20260831160555 | 58 | 359 | 0.0 | 4.0 | 0.13 | 1.98 | 0.56 | 98 | 1011.8 |
| 20260831155556 | 58 | 251 | 0.0 | 6.0 | 0.09 | 1.94 | 0.53 | 98 | 1011.4 |
| 20260831155058 | 58 | 202 | 1.0 | 4.0 | 0.08 | 1.93 | 0.51 | 98 | 1011.6 |
| 20260831154555 | 58 | 359 | 1.0 | 3.0 | 0.04 | 1.89 | 0.47 | 98 | 1011.9 |
| 20260831154054 | 58 | 359 | 1.0 | 3.0 | 0.03 | 1.88 | 0.46 | 98 | 1010.6 |
| 20260831153555 | 58 | 190 | 1.0 | 3.0 | 0.03 | 1.88 | 0.46 | 98 | 1011.1 |
| 20260831153057 | 58 | 189 | 1.0 | 2.0 | 0.04 | 1.88 | 0.46 | 98 | 1011.0 |
| 20260831152554 | 58 | 359 | 0.0 | 5.0 | 0.04 | 1.88 | 0.46 | 98 | 1011.5 |
| 20260831152055 | 58 | 359 | 2.0 | 5.0 | 0.03 | 1.87 | 0.46 | 98 | 1011.4 |
| 20260831151601 | 58 | 149 | 0.0 | 4.0 | 0.02 | 1.87 | 0.45 | 98 | 1011.4 |
| 20260831151055 | 58 | 359 | 1.0 | 6.0 | 0.02 | 1.86 | 0.44 | 98 | 1011.5 |
| 20260831150554 | 58 | 172 | 2.0 | 6.0 | 0.01 | 1.85 | 0.43 | 98 | 1011.1 |
| 20260831145552 | 58 | 124 | 0.0 | 4.0 | 0.01 | 1.85 | 0.43 | 98 | 1011.1 |
| 20260831145052 | 58 | 124 | 1.0 | 4.0 | 0.02 | 1.85 | 0.43 | 98 | 1011.3 |
| 20260831144606 | 58 | 128 | 0.0 | 4.0 | 0.02 | 1.85 | 0.43 | 98 | 1011.4 |
| 20260831144051 | 58 | 177 | 2.0 | 4.0 | 0.02 | 1.85 | 0.43 | 98 | 1011.4 |
| 20260831143550 | 58 | 187 | 1.0 | 5.0 | 0.03 | 1.94 | 0.43 | 98 | 1011.7 |
| 20260831143050 | 58 | 116 | 2.0 | 5.0 | 0.03 | 1.93 | 0.43 | 98 | 1011.7 |
| 20260831142550 | 58 | 359 | 1.0 | 8.0 | 0.04 | 1.93 | 0.43 | 98 | 1012.4 |
| 20260831142046 | 58 | 172 | 4.0 | 8.0 | 0.06 | 1.93 | 0.43 | 98 | 1013.2 |
| 20260831141550 | 58 | 225 | 4.0 | 7.0 | 0.06 | 1.93 | 0.43 | 98 | 1013.5 |